WetterOnline ( http://www.wetteronline.de )

Wetter aktuell Hohenpeißenberg

Aktuelles Wetter: Hohenpeißenberg (986m)

6-stündlich | Neueste Meldungen
Ortszeit Temperatur Wetter
Do, 16.08. 20:00 20.9° C fast wolkenlos
Do, 16.08. 14:00 21.4° C leicht bewölkt
Do, 16.08. 8:00 17.2° C wolkenlos
Do, 16.08. 2:00 17.4° C wolkenlos
Mi, 15.08. 20:00 19.0° C leicht bewölkt
Mi, 15.08. 14:00 18.5° C wolkig
Mi, 15.08. 8:00 13.9° C leicht bewölkt
Mi, 15.08. 2:00 14.4° C bedeckt
Ortszeit Temperatur Wetter
Do, 16.08. 20:00 20.9° C fast wolkenlos
Do, 16.08. 19:50 20.9° C wolkenlos
Do, 16.08. 19:40 21.0° C wolkenlos
Do, 16.08. 19:30 21.5° C fast wolkenlos
Do, 16.08. 19:20 21.5° C wolkenlos
Do, 16.08. 19:10 21.5° C wolkenlos
Do, 16.08. 19:00 21.8° C fast wolkenlos
Do, 16.08. 18:30 22.1° C fast wolkenlos
Do, 16.08. 18:00 22.4° C fast wolkenlos
Do, 16.08. 17:30 22.5° C fast wolkenlos
Do, 16.08. 17:00 22.6° C leicht bewölkt
Ortszeit Relative Feuchte Sichtweite
Do, 16.08. 20:00 49% >70 km
Do, 16.08. 14:00 49% >70 km
Do, 16.08. 8:00 63% 60 km
Do, 16.08. 2:00 63% 40 km
Mi, 15.08. 20:00 57% 70 km
Mi, 15.08. 14:00 63% 30 km
Mi, 15.08. 8:00 85% 28 km
Mi, 15.08. 2:00 83% 50 km
Ortszeit Relative Feuchte Sichtweite
Do, 16.08. 20:00 49% >70 km
Do, 16.08. 19:50 49% -
Do, 16.08. 19:40 48% -
Do, 16.08. 19:30 48% >70 km
Do, 16.08. 19:20 48% -
Do, 16.08. 19:10 48% -
Do, 16.08. 19:00 48% >70 km
Do, 16.08. 18:30 46% >70 km
Do, 16.08. 18:00 42% >70 km
Do, 16.08. 17:30 45% >70 km
Do, 16.08. 17:00 42% >70 km
Ortszeit Niederschlagsmenge Niederschlagsart
Do, 16.08. 20:00 0.0 l/m2 in 12 Std. -
Do, 16.08. 14:00 0.0 l/m2 in 6 Std. -
Do, 16.08. 8:00 0.0 l/m2 in 12 Std. -
Do, 16.08. 2:00 0.0 l/m2 in 6 Std. -
Mi, 15.08. 20:00 0.0 l/m2 in 12 Std. -
Mi, 15.08. 14:00 0.0 l/m2 in 6 Std. -
Mi, 15.08. 8:00 0.1 l/m2 in 12 Std. -
Mi, 15.08. 2:00 0.1 l/m2 in 6 Std. Regen
Ortszeit Niederschlagsmenge Niederschlagsart
Do, 16.08. 20:00 0.0 l/m2 in 1 Std. -
Do, 16.08. 19:50 keine Meldung -
Do, 16.08. 19:40 keine Meldung -
Do, 16.08. 19:30 0.0 l/m2 in 1 Std. -
Do, 16.08. 19:20 keine Meldung -
Do, 16.08. 19:10 keine Meldung -
Do, 16.08. 19:00 0.0 l/m2 in 1 Std. -
Do, 16.08. 18:30 0.0 l/m2 in 1 Std. -
Do, 16.08. 18:00 0.0 l/m2 in 1 Std. -
Do, 16.08. 17:30 0.0 l/m2 in 1 Std. -
Do, 16.08. 17:00 0.0 l/m2 in 1 Std. -
Ortszeit Stärke Spitze Richtung
km/h Bft. km/h Grad Sektor
Do, 16.08. 20:00 9 2 22 50° NO
Do, 16.08. 14:00 13 3 22 60° NO
Do, 16.08. 8:00 11 2 14 130° SO
Do, 16.08. 2:00 7 2 11 120° SO
Mi, 15.08. 20:00 6 1 20 90° O
Mi, 15.08. 14:00 9 2 19 10° N
Mi, 15.08. 8:00 7 2 18 310° NW
Mi, 15.08. 2:00 7 2 25 290° W
Ortszeit Stärke Spitze Richtung
km/h Bft. km/h Grad Sektor
Do, 16.08. 20:00 9 2 13 50° NO
Do, 16.08. 19:50 9 2 - 50° NO
Do, 16.08. 19:40 9 2 - 40° NO
Do, 16.08. 19:30 7 2 13 30° NO
Do, 16.08. 19:20 7 2 - 30° NO
Do, 16.08. 19:10 7 2 - 20° N
Do, 16.08. 19:00 9 2 17 30° NO
Do, 16.08. 18:30 11 2 17 20° N
Do, 16.08. 18:00 9 2 17 40° NO
Do, 16.08. 17:30 9 2 15 30° NO
Do, 16.08. 17:00 11 2 18 30° NO
Ortszeit Untergrenze Bedeckung Gattung
total tief tief mittel hoch
Do, 16.08. 20:00 2400 m 1/8 1/8 - Ac -
Do, 16.08. 14:00 990 m 2/8 2/8 Cu - -
Do, 16.08. 8:00 - 0/8 0/8 - - -
Do, 16.08. 2:00 2100 m 0/8 0/8 - - -
Mi, 15.08. 20:00 1800 m 3/8 2/8 Cu Ac -
Mi, 15.08. 14:00 780 m 5/8 5/8 Cu - -
Mi, 15.08. 8:00 690 m 3/8 3/8 Sc - -
Mi, 15.08. 2:00 1140 m 8/8 8/8 - - -
Ortszeit Bedeckungsgrad in Achtel und Wolkenuntergrenze
Do, 16.08. 20:00 1(2400m)
Do, 16.08. 19:50 keine Wolken
Do, 16.08. 19:40 keine Wolken
Do, 16.08. 19:30 1(2400m)
Do, 16.08. 19:20 keine Wolken
Do, 16.08. 19:10 keine Wolken
Do, 16.08. 19:00 1(2400m)
Do, 16.08. 18:30 1(2400m)
Do, 16.08. 18:00 1(2100m)
Do, 16.08. 17:30 1(1800m)
Do, 16.08. 17:00 2(1800m)
Ortszeit Stationsdruck (hPa) Tendenz (hPa in 3 Std.)
Do, 16.08. 20:00 905 - 0,3
Do, 16.08. 14:00 907 - 1,0
Do, 16.08. 8:00 908 - 0,3
Do, 16.08. 2:00 909 - 0,5
Mi, 15.08. 20:00 909 - 0,4
Mi, 15.08. 14:00 910 - 0,3
Mi, 15.08. 8:00 909 + 0,3
Mi, 15.08. 2:00 909 + 0,4
Ortszeit Stationsdruck (hPa) Tendenz (hPa in 3 Std.)
Do, 16.08. 20:00 905 - 0,3
Do, 16.08. 19:50 905 keine Meldung
Do, 16.08. 19:40 905 keine Meldung
Do, 16.08. 19:30 905 - 0,5
Do, 16.08. 19:20 905 keine Meldung
Do, 16.08. 19:10 905 keine Meldung
Do, 16.08. 19:00 905 - 0,5
Do, 16.08. 18:30 905 - 0,6
Do, 16.08. 18:00 905 - 0,9
Do, 16.08. 17:30 906 - 0,9
Do, 16.08. 17:00 906 - 1,1
Ortszeit Schneehöhe (cm)
Do, 16.08. 20:00 0
Do, 16.08. 14:00 0
Do, 16.08. 8:00 0
Do, 16.08. 2:00 -
Mi, 15.08. 20:00 0
Mi, 15.08. 14:00 0
Mi, 15.08. 8:00 0
Mi, 15.08. 2:00 -
Ortszeit Schneehöhe (cm)
Do, 16.08. 20:00 0
Do, 16.08. 19:50 -
Do, 16.08. 19:40 -
Do, 16.08. 19:30 -
Do, 16.08. 19:20 -
Do, 16.08. 19:10 -
Do, 16.08. 19:00 -
Do, 16.08. 18:30 -
Do, 16.08. 18:00 -
Do, 16.08. 17:30 -
Do, 16.08. 17:00 -
Link zu dieser Seite / Seite empfehlen

Das Wetter in ...